This is the latest recevied weather packets stored in our database for station/object W0WC. If no packets are shown the sender has not sent any weather packets the latest 10 day(s).
| Time | Temp. | Humidity | Pressure | Rain* | Wind** | Luminosity | Snow |
|---|---|---|---|---|---|---|---|
| 1777740357 | 15.56° C | 39% | 1022.4 hPa | 0 mm | - | 737 W/m² | - |
| 1777740055 | 15.56° C | 38% | 1022.1 hPa | 0 mm | - | 729 W/m² | - |
| 1777739750 | 15.56° C | 41% | 1022.2 hPa | 0 mm | - | 720 W/m² | - |
| 1777739448 | 15.56° C | 39% | 1022.3 hPa | 0 mm | - | 712 W/m² | - |
| 1777739144 | 15.56° C | 39% | 1022.1 hPa | 0 mm | - | 701 W/m² | - |
| 1777738842 | 15° C | 42% | 1022.1 hPa | 0 mm | - | 693 W/m² | - |
| 1777738538 | 15° C | 39% | 1022.3 hPa | 0 mm | - | 683 W/m² | - |
| 1777738236 | 15° C | 40% | 1022.4 hPa | 0 mm | - | 673 W/m² | - |
| 1777737934 | 15° C | 40% | 1022.3 hPa | 0 mm | - | 662 W/m² | - |
| 1777737632 | 15° C | 38% | 1022.5 hPa | 0 mm | - | 651 W/m² | - |
| 1777737330 | 15° C | 38% | 1022.1 hPa | 0 mm | - | 640 W/m² | - |
| 1777737027 | 15° C | 39% | 1022.2 hPa | 0 mm | - | 628 W/m² | - |
| 1777736723 | 14.44° C | 42% | 1022.2 hPa | 0 mm | - | 610 W/m² | - |
| 1777735792 | 15° C | 38% | 1022.3 hPa | 0 mm | - | 579 W/m² | - |
| 1777735489 | 14.44° C | 42% | 1022.2 hPa | 0 mm | - | 565 W/m² | - |
| 1777735187 | 14.44° C | 43% | 1022.1 hPa | 0 mm | - | 550 W/m² | - |
| 1777734884 | 13.89° C | 44% | 1022.3 hPa | 0 mm | - | 537 W/m² | - |
| 1777734581 | 13.89° C | 43% | 1022.1 hPa | 0 mm | - | 525 W/m² | - |
| 1777734278 | 13.89° C | 43% | 1022.2 hPa | 0 mm | - | 510 W/m² | - |
| 1777733974 | 13.33° C | 47% | 1022.1 hPa | 0 mm | - | 494 W/m² | - |
| 1777733671 | 13.89° C | 49% | 1022.2 hPa | 0 mm | - | 478 W/m² | - |
| 1777733367 | 13.33° C | 50% | 1022.2 hPa | 0 mm | - | 462 W/m² | - |
| 1777733064 | 12.78° C | 52% | 1022.1 hPa | 0 mm | - | 447 W/m² | - |
| 1777732760 | 12.78° C | 55% | 1022.2 hPa | 0 mm | - | 432 W/m² | - |
| 1777732457 | 12.78° C | 53% | 1022.3 hPa | 0 mm | - | 416 W/m² | - |
* Rain latest hour (hover to see other rain measurements)
** Current wind speed in m/s (hover to see current wind gust speed)